Regional Weather Roundup
Issued by NWS State College, PA

Home | Current Version | Previous Version | Graphics & Text | Print | Product List | Glossary On
Versions: 1 2 3 4 5 6 7 8 9 10 11 12 13 14 15 16 17 18 19 20 21 22 23 24 25 26 27 28 29 30 31 32 33 34 35 36 37 38 39 40 41 42 43 44 45 46 47 48 49 50
000
ASUS41 KCTP 021410
RWRCTP

REGIONAL WEATHER ROUNDUP
NATIONAL WEATHER SERVICE STATE COLLEGE PA
1000 AM EDT THU OCT 02 2014

Note: "fair" indicates few or no clouds below 12,000 feet with no
significant weather and/or obstructions to visibility.

* = STATION THAT DOES NOT REPORT PRECIPITATION /E.G. RAIN...SNOW...ETC/
    THUNDER OR FOG.

PAZ002>004-007>009-013>016-020>023-029>032-021500-
WESTERN PENNSYLVANIA

CITY           SKY/WX    TMP DP  RH WIND       PRES   REMARKS
ERIE           SUNNY     63  56  78 S8        30.10R
MEADVILLE      FOG       56  55  97 E3        30.12R VSB 1/4
FRANKLIN*      CLOUDY    55  54  94 S6        30.15R
NEW CASTLE     FOG       54  54 100 CALM      30.14R VSB<1/4
BEAVER COUNTY  FOG       55  54  94 S5        30.13S VSB 1/4
BUTLER*        CLOUDY    55  54  94 S5        30.15S
PITTSBURGH INT FOG       54  54 100 CALM      30.13R VSB 1/16
PITTSBURGH     SUNNY     58  55  90 S6        30.13R FOG
INDIANA*       SUNNY     64  57  77 SW7       30.18R
LATROBE        SUNNY     63  61  94 VRB5      30.15R
WASHINGTON CO* CLOUDY    54  54 100 CALM      30.15R VSB 3/4
$$

PAZ004>006-010>012-017>019-024>028-033>037-041-042-045-046-049>053-021500-
CENTRAL PENNSYLVANIA

CITY           SKY/WX    TMP DP  RH WIND       PRES   REMARKS
BRADFORD       CLOUDY    55  54  96 SE7       30.16S FOG
DUBOIS         SUNNY     59  56  89 SE5       30.14R
CLEARFIELD     MOSUNNY   58  55  90 NE6       30.15S
JOHNSTOWN      PTSUNNY   60  55  83 S8        30.15R
ALTOONA        CLOUDY    58  57  97 SE3       30.16S FOG
STATE COLLEGE  FOG       55  55 100 CALM      30.16R VSB 1/2
WILLIAMSPORT   CLOUDY    58  56  93 CALM      30.14S
SELINSGROVE    CLOUDY    58  57  97 CALM      30.16S
FT INDIANTOWN  CLOUDY    61  61 100 E3        30.16S
CAPITAL CITY   PTSUNNY   64  56  75 E6        30.16R
HARRISBURG     CLOUDY    63  58  83 CALM      30.15R
YORK           PTSUNNY   66  59  78 CALM      30.15S
$$

PAZ038>040-043-044-047-048-054-055-060>062-067>071-021500-
EASTERN PENNSYLVANIA

CITY           SKY/WX    TMP DP  RH WIND       PRES   REMARKS
SCRANTON       MOSUNNY   64  54  69 N3        30.16S
MOUNT POCONO   CLOUDY    57  53  86 E6        30.18R
ALLENTOWN      PTSUNNY   64  55  72 E9        30.16S
QUAKERTOWN*    CLOUDY    63  57  82 NE5       30.17S
READING        CLOUDY    60  56  86 CALM      30.15F
LANCASTER      CLOUDY    62  57  83 E3        30.16R
COATESVILLE    CLOUDY    59  57  94 NE3       30.17R
POTTSTOWN      CLOUDY    62  57  83 N3        30.17S
BLUE BELL      CLOUDY    64  55  72 CALM      30.15S
DOYLESTOWN     CLOUDY    63  55  75 NE8       30.15R
WILLOW GROVE   NOT AVBL
NORTH PHILA    CLOUDY    68  55  63 NE9       30.16S
PHILADELPHIA   PTSUNNY   64  55  72 NE8       30.16R
$$


USA.gov is the U.S. government's official web portal to all federal, state and local government web resources and services.